Hourly Data Report for September 22, 2010

IQALUIT CLIMATE
NUNAVUT

63°44'50.000" N
68°32'40.000" W
33.50 m
2402592
71321
XFB

Download Data

Hourly Data (September 2010)
Hourly Data Report for September 22, 2010
TIME
LST
Temp Definition
°C
Dew Point Definition
°C
Rel Hum Definition
%
Precip. Amount Definition
mm

Wind Dir Definition
10's deg

Wind Spd Definition
km/h
Visibility Definition
km
Stn Press Definition
kPa
Hmdx Definition


Wind Chill Definition


Weather Definition


00:00 5.2 2.3 82   5 17   100.18     LegendNANA
01:00 4.8 2.1 83   3 4   100.17     LegendNANA
02:00 5.5 2.3 80   3 7   100.15     LegendNANA
03:00 5.5 1.5 75   3 6   100.10     LegendNANA
04:00 5.7 1.6 75   3 7   100.11     LegendNANA
05:00 4.3 1.6 83   31 13   100.07     LegendNANA
06:00 3.4 1.7 89   32 11   100.02     LegendNANA
07:00 4.1 2.1 87   32 6   99.98     LegendNANA
08:00 6.0 1.9 75   36 15   99.89     LegendNANA
09:00 6.6 2.2 73   36 19   99.82     LegendNANA
10:00 7.1 2.3 71   36 19   99.72     LegendNANA
11:00 7.2 2.7 73   34 19   99.63     LegendNANA
12:00 7.3 1.9 69   36 20   99.59     LegendNANA
13:00 7.2 2.0 69   36 22   99.53     LegendNANA
14:00 7.3 1.7 68   2 30   99.46     LegendNANA
15:00 7.0 1.9 70   2 28   99.42     LegendNANA
16:00 6.7 1.7 70   1 24   99.43     LegendNANA
17:00 6.4 1.9 73   30 19   99.49     LegendNANA
18:00 6.0 1.9 75   34 22   99.49     LegendNANA
19:00 5.8 2.1 77   31 19   99.47     LegendNANA
20:00 5.6 2.5 80   33 20   99.45     LegendNANA
21:00 5.6 2.6 81   33 22   99.43     LegendNANA
22:00 5.5 2.8 83   33 28   99.37     LegendNANA
23:00 5.5 2.4 80   33 24   99.35     LegendNANA

Notes on Data Quality.

Legend

  • E = Estimated
  • M = Missing
  • NA = Not Available*
  • [empty] = Indicates an unobserved value
Date modified: